Time,TemperatureF,DewpointF,PressureIn,WindDirection,WindDirectionDegrees,WindSpeedMPH,WindSpeedGustMPH,Humidity,HourlyPrecipIn,Conditions,Clouds,dailyrainin,SoftwareType,DateUTC
2013-07-05 00:00:00,79.0,54.0,30.12,WNW,298,2.0,5.0,86,0.00,,,0.00,meteohub,2013-07-05 04:00:00,
2013-07-05 00:01:00,79.0,54.0,30.12,WNW,296,0.0,5.0,86,0.00,,,0.00,meteohub,2013-07-05 04:01:00,
2013-07-05 00:06:00,78.6,54.0,30.12,WNW,296,0.0,2.0,86,0.00,,,0.00,meteohub,2013-07-05 04:06:00,
2013-07-05 00:11:00,78.6,54.0,30.12,NW,306,0.0,2.0,86,0.00,,,0.00,meteohub,2013-07-05 04:11:00,
2013-07-05 00:16:00,78.6,54.0,30.12,NW,306,0.0,2.0,86,0.00,,,0.00,meteohub,2013-07-05 04:16:00,
2013-07-05 00:21:00,78.6,54.0,30.12,NW,308,0.0,2.0,86,0.00,,,0.00,meteohub,2013-07-05 04:21:00,
2013-07-05 00:26:00,78.6,54.0,30.12,WNW,296,0.0,2.0,86,0.00,,,0.00,meteohub,2013-07-05 04:26:00,
2013-07-05 00:31:00,78.6,53.8,30.12,WNW,297,0.0,3.0,86,0.00,,,0.00,meteohub,2013-07-05 04:31:00,
2013-07-05 00:36:00,78.4,53.8,30.12,WNW,296,0.0,3.0,86,0.00,,,0.00,meteohub,2013-07-05 04:36:00,
2013-07-05 00:41:00,78.4,53.8,30.12,WNW,296,0.0,3.0,87,0.00,,,0.00,meteohub,2013-07-05 04:41:00,
2013-07-05 00:46:00,78.4,53.8,30.12,WNW,302,0.0,1.0,86,0.00,,,0.00,meteohub,2013-07-05 04:46:00,
2013-07-05 00:51:00,78.4,53.8,30.12,ESE,110,0.0,2.0,86,0.00,,,0.00,meteohub,2013-07-05 04:51:00,
2013-07-05 00:56:00,78.4,53.8,30.13,WNW,296,0.0,4.0,86,0.00,,,0.00,meteohub,2013-07-05 04:56:00,
2013-07-05 01:01:00,78.4,53.8,30.12,West,273,0.0,4.0,86,0.00,,,0.00,meteohub,2013-07-05 05:01:00,
2013-07-05 01:06:00,78.4,53.6,30.13,West,279,1.0,5.0,86,0.00,,,0.00,meteohub,2013-07-05 05:06:00,
2013-07-05 01:11:00,78.4,53.6,30.12,NNW,329,0.0,6.0,86,0.00,,,0.00,meteohub,2013-07-05 05:11:00,
2013-07-05 01:16:00,78.4,53.6,30.12,West,275,2.0,6.0,86,0.00,,,0.00,meteohub,2013-07-05 05:16:00,
2013-07-05 01:22:00,78.4,53.6,30.12,WNW,287,0.0,7.0,86,0.00,,,0.00,meteohub,2013-07-05 05:22:00,
2013-07-05 01:27:00,78.3,52.7,30.12,WNW,292,1.0,7.0,86,0.00,,,0.00,meteohub,2013-07-05 05:27:00,
2013-07-05 01:32:00,78.3,52.7,30.12,WNW,303,0.0,7.0,86,0.00,,,0.00,meteohub,2013-07-05 05:32:00,
2013-07-05 01:37:00,78.3,52.7,30.12,NW,309,5.0,5.0,86,0.00,,,0.00,meteohub,2013-07-05 05:37:00,
2013-07-05 01:42:00,78.3,52.7,30.12,NW,316,0.0,5.0,86,0.00,,,0.00,meteohub,2013-07-05 05:42:00,
2013-07-05 01:47:00,78.3,52.7,30.12,NW,307,0.0,5.0,86,0.00,,,0.00,meteohub,2013-07-05 05:47:00,
2013-07-05 01:52:00,78.1,52.7,30.12,WNW,301,1.0,5.0,86,0.00,,,0.00,meteohub,2013-07-05 05:52:00,
2013-07-05 01:57:00,78.1,52.7,30.12,WSW,237,0.0,5.0,86,0.00,,,0.00,meteohub,2013-07-05 05:57:00,
2013-07-05 02:02:00,78.1,52.5,30.12,WNW,290,0.0,5.0,86,0.00,,,0.00,meteohub,2013-07-05 06:02:00,
2013-07-05 02:07:00,78.1,52.5,30.12,NW,311,2.0,4.0,86,0.00,,,0.00,meteohub,2013-07-05 06:07:00,
2013-07-05 02:12:00,77.9,52.5,30.12,NW,309,0.0,4.0,86,0.00,,,0.00,meteohub,2013-07-05 06:12:00,
2013-07-05 02:17:00,77.9,52.5,30.12,WNW,297,1.0,4.0,86,0.00,,,0.00,meteohub,2013-07-05 06:17:00,
2013-07-05 02:22:00,77.7,52.5,30.12,WNW,300,0.0,6.0,87,0.00,,,0.00,meteohub,2013-07-05 06:22:00,
2013-07-05 02:27:00,77.7,52.3,30.12,WNW,299,0.0,6.0,87,0.00,,,0.00,meteohub,2013-07-05 06:27:00,
2013-07-05 02:32:00,77.7,52.3,30.12,NW,309,5.0,5.0,87,0.00,,,0.00,meteohub,2013-07-05 06:32:00,
2013-07-05 02:37:00,77.7,52.3,30.12,WNW,295,0.0,6.0,87,0.00,,,0.00,meteohub,2013-07-05 06:37:00,
2013-07-05 02:42:00,77.7,52.3,30.12,WNW,284,0.0,6.0,87,0.00,,,0.00,meteohub,2013-07-05 06:42:00,
2013-07-05 02:47:00,77.7,52.3,30.12,WNW,288,0.0,5.0,87,0.00,,,0.00,meteohub,2013-07-05 06:47:00,
2013-07-05 02:52:00,77.5,52.3,30.12,NW,307,1.0,5.0,87,0.00,,,0.00,meteohub,2013-07-05 06:52:00,
2013-07-05 02:57:00,77.5,52.3,30.12,NW,315,0.0,6.0,87,0.00,,,0.00,meteohub,2013-07-05 06:57:00,
2013-07-05 03:02:00,77.5,52.2,30.13,NW,312,1.0,6.0,87,0.00,,,0.00,meteohub,2013-07-05 07:02:00,
2013-07-05 03:07:00,77.5,52.3,30.12,NW,305,0.0,6.0,87,0.00,,,0.00,meteohub,2013-07-05 07:07:00,
2013-07-05 03:12:00,77.4,52.2,30.13,NW,304,0.0,5.0,87,0.00,,,0.00,meteohub,2013-07-05 07:12:00,
2013-07-05 03:17:00,77.4,52.2,30.12,WNW,296,4.0,5.0,87,0.00,,,0.00,meteohub,2013-07-05 07:17:00,
2013-07-05 03:22:00,77.4,52.2,30.12,NW,314,0.0,6.0,87,0.00,,,0.00,meteohub,2013-07-05 07:22:00,
2013-07-05 03:27:00,77.4,52.2,30.12,WNW,282,2.0,6.0,87,0.00,,,0.00,meteohub,2013-07-05 07:27:00,
2013-07-05 03:32:00,77.2,52.2,30.12,West,276,0.0,6.0,87,0.00,,,0.00,meteohub,2013-07-05 07:32:00,
2013-07-05 03:37:00,77.2,52.2,30.12,NW,304,1.0,4.0,87,0.00,,,0.00,meteohub,2013-07-05 07:37:00,
2013-07-05 03:42:00,77.2,52.2,30.12,WNW,286,0.0,5.0,88,0.00,,,0.00,meteohub,2013-07-05 07:42:00,
2013-07-05 03:47:00,77.2,52.2,30.12,WNW,286,2.0,5.0,88,0.00,,,0.00,meteohub,2013-07-05 07:47:00,
2013-07-05 03:52:00,77.0,52.2,30.12,WNW,296,1.0,5.0,88,0.00,,,0.00,meteohub,2013-07-05 07:52:00,
2013-07-05 03:57:00,77.0,52.2,30.12,WNW,299,0.0,3.0,88,0.00,,,0.00,meteohub,2013-07-05 07:57:00,
2013-07-05 04:02:00,76.8,52.2,30.12,WNW,287,0.0,3.0,88,0.00,,,0.00,meteohub,2013-07-05 08:02:00,
2013-07-05 04:07:00,76.8,52.2,30.12,WNW,287,0.0,4.0,88,0.00,,,0.00,meteohub,2013-07-05 08:07:00,
2013-07-05 04:12:00,76.8,52.2,30.12,WNW,295,1.0,4.0,88,0.00,,,0.00,meteohub,2013-07-05 08:12:00,
2013-07-05 04:17:00,76.8,52.2,30.12,WNW,296,1.0,4.0,88,0.00,,,0.00,meteohub,2013-07-05 08:17:00,
2013-07-05 04:22:00,76.6,52.2,30.12,WNW,294,1.0,3.0,88,0.00,,,0.00,meteohub,2013-07-05 08:22:00,
2013-07-05 04:27:00,76.6,52.2,30.12,NW,309,1.0,3.0,88,0.00,,,0.00,meteohub,2013-07-05 08:27:00,
2013-07-05 04:32:00,76.6,52.2,30.12,NW,306,1.0,5.0,88,0.00,,,0.00,meteohub,2013-07-05 08:32:00,
2013-07-05 04:37:00,76.6,52.2,30.12,NW,304,0.0,5.0,89,0.00,,,0.00,meteohub,2013-07-05 08:37:00,
2013-07-05 04:42:00,76.5,52.2,30.13,NW,317,0.0,5.0,89,0.00,,,0.00,meteohub,2013-07-05 08:42:00,
2013-07-05 04:47:00,76.5,52.2,30.13,NW,319,0.0,2.0,89,0.00,,,0.00,meteohub,2013-07-05 08:47:00,
2013-07-05 04:52:00,76.5,52.2,30.12,NW,319,0.0,4.0,89,0.00,,,0.00,meteohub,2013-07-05 08:52:00,
2013-07-05 04:57:00,76.3,52.7,30.13,NW,318,0.0,4.0,89,0.00,,,0.00,meteohub,2013-07-05 08:57:00,
2013-07-05 05:02:00,76.3,52.2,30.13,NW,319,2.0,4.0,89,0.00,,,0.00,meteohub,2013-07-05 09:02:00,
2013-07-05 05:07:00,76.1,52.2,30.13,WNW,299,0.0,2.0,89,0.00,,,0.00,meteohub,2013-07-05 09:07:00,
2013-07-05 05:12:00,76.1,52.7,30.13,WNW,299,0.0,5.0,89,0.00,,,0.00,meteohub,2013-07-05 09:12:00,
2013-07-05 05:17:00,75.9,52.7,30.13,WNW,294,0.0,5.0,89,0.00,,,0.00,meteohub,2013-07-05 09:17:00,
2013-07-05 05:22:00,75.9,52.7,30.13,WNW,294,0.0,3.0,90,0.00,,,0.00,meteohub,2013-07-05 09:22:00,
2013-07-05 05:27:00,75.7,52.7,30.14,WNW,287,0.0,5.0,90,0.00,,,0.00,meteohub,2013-07-05 09:27:00,
2013-07-05 05:32:00,75.7,52.7,30.14,WNW,287,0.0,5.0,90,0.00,,,0.00,meteohub,2013-07-05 09:32:00,
2013-07-05 05:37:00,75.7,52.7,30.14,WNW,287,0.0,5.0,90,0.00,,,0.00,meteohub,2013-07-05 09:37:00,
2013-07-05 05:42:00,75.7,52.7,30.14,WNW,287,0.0,1.0,90,0.00,,,0.00,meteohub,2013-07-05 09:42:00,
2013-07-05 05:47:00,75.7,52.7,30.14,WNW,287,0.0,1.0,90,0.00,,,0.00,meteohub,2013-07-05 09:47:00,
2013-07-05 05:52:00,75.6,52.7,30.14,WNW,287,0.0,1.0,90,0.00,,,0.00,meteohub,2013-07-05 09:52:00,
2013-07-05 05:57:00,75.6,52.7,30.14,WNW,287,0.0,1.0,91,0.00,,,0.00,meteohub,2013-07-05 09:57:00,
2013-07-05 06:02:00,75.6,52.7,30.14,WNW,287,0.0,1.0,91,0.00,,,0.00,meteohub,2013-07-05 10:02:00,
2013-07-05 06:08:00,75.6,52.7,30.14,WNW,287,0.0,1.0,91,0.00,,,0.00,meteohub,2013-07-05 10:08:00,
2013-07-05 06:13:00,75.6,52.7,30.14,WNW,287,0.0,0.0,91,0.00,,,0.00,meteohub,2013-07-05 10:13:00,
2013-07-05 06:18:00,75.6,52.7,30.14,WNW,287,0.0,0.0,91,0.00,,,0.00,meteohub,2013-07-05 10:18:00,
2013-07-05 06:23:00,75.6,52.7,30.14,WNW,287,0.0,0.0,91,0.00,,,0.00,meteohub,2013-07-05 10:23:00,
2013-07-05 06:28:00,75.6,52.9,30.14,WNW,287,0.0,0.0,91,0.00,,,0.00,meteohub,2013-07-05 10:28:00,
2013-07-05 06:34:00,75.6,52.9,30.14,WNW,287,0.0,0.0,91,0.00,,,0.00,meteohub,2013-07-05 10:34:00,
2013-07-05 06:39:00,75.7,52.9,30.14,WNW,287,0.0,0.0,91,0.00,,,0.00,meteohub,2013-07-05 10:39:00,
2013-07-05 06:44:00,75.7,52.9,30.15,WNW,287,0.0,0.0,91,0.00,,,0.00,meteohub,2013-07-05 10:44:00,
2013-07-05 06:49:00,75.9,52.9,30.14,WNW,287,0.0,1.0,91,0.00,,,0.00,meteohub,2013-07-05 10:49:00,
2013-07-05 06:55:00,76.1,53.1,30.15,South,191,0.0,1.0,91,0.00,,,0.00,meteohub,2013-07-05 10:55:00,
2013-07-05 07:00:00,76.3,53.1,30.15,SSW,192,0.0,2.0,91,0.00,,,0.00,meteohub,2013-07-05 11:00:00,
2013-07-05 07:05:00,76.5,53.1,30.15,SSW,192,0.0,2.0,91,0.00,,,0.00,meteohub,2013-07-05 11:05:00,
2013-07-05 07:10:00,76.6,53.1,30.15,WNW,302,0.0,2.0,90,0.00,,,0.00,meteohub,2013-07-05 11:10:00,
2013-07-05 07:15:00,76.8,53.2,30.15,West,279,0.0,4.0,90,0.00,,,0.00,meteohub,2013-07-05 11:15:00,
2013-07-05 07:21:00,77.2,53.2,30.15,West,265,0.0,5.0,90,0.00,,,0.00,meteohub,2013-07-05 11:21:00,
2013-07-05 07:26:00,77.4,53.2,30.15,West,275,0.0,5.0,89,0.00,,,0.00,meteohub,2013-07-05 11:26:00,
2013-07-05 07:31:00,77.5,53.4,30.15,West,275,0.0,1.0,89,0.00,,,0.00,meteohub,2013-07-05 11:31:00,
2013-07-05 07:36:00,77.7,53.4,30.15,WNW,300,4.0,4.0,89,0.00,,,0.00,meteohub,2013-07-05 11:36:00,
2013-07-05 07:41:00,78.1,53.4,30.15,WNW,301,0.0,4.0,88,0.00,,,0.00,meteohub,2013-07-05 11:41:00,
2013-07-05 07:47:00,78.3,53.6,30.15,WNW,301,0.0,4.0,88,0.00,,,0.00,meteohub,2013-07-05 11:47:00,
2013-07-05 07:52:00,78.4,53.6,30.15,WNW,301,0.0,4.0,87,0.00,,,0.00,meteohub,2013-07-05 11:52:00,
2013-07-05 07:57:00,78.6,53.6,30.15,WNW,300,0.0,1.0,88,0.00,,,0.00,meteohub,2013-07-05 11:57:00,
2013-07-05 08:02:00,78.8,53.6,30.15,WNW,300,1.0,1.0,87,0.00,,,0.00,meteohub,2013-07-05 12:02:00,
2013-07-05 08:07:00,79.2,54.3,30.15,NW,307,2.0,4.0,86,0.00,,,0.00,meteohub,2013-07-05 12:07:00,
2013-07-05 08:12:00,79.3,53.8,30.15,WNW,302,0.0,6.0,86,0.00,,,0.00,meteohub,2013-07-05 12:12:00,
2013-07-05 08:17:00,79.5,53.8,30.15,WNW,302,0.0,6.0,86,0.00,,,0.00,meteohub,2013-07-05 12:17:00,
2013-07-05 08:22:00,79.9,54.0,30.15,WNW,302,0.0,6.0,85,0.00,,,0.00,meteohub,2013-07-05 12:22:00,
2013-07-05 08:27:00,80.2,54.0,30.15,WNW,302,0.0,4.0,85,0.00,,,0.00,meteohub,2013-07-05 12:27:00,
2013-07-05 08:32:00,80.4,54.0,30.15,West,270,0.0,1.0,84,0.00,,,0.00,meteohub,2013-07-05 12:32:00,
2013-07-05 08:37:00,80.8,54.0,30.15,West,279,0.0,2.0,83,0.00,,,0.00,meteohub,2013-07-05 12:37:00,
2013-07-05 08:42:00,81.1,54.0,30.15,West,279,0.0,5.0,83,0.00,,,0.00,meteohub,2013-07-05 12:42:00,
2013-07-05 08:47:00,81.3,54.0,30.15,WNW,287,0.0,5.0,83,0.00,,,0.00,meteohub,2013-07-05 12:47:00,
2013-07-05 08:53:00,81.9,54.0,30.15,WNW,286,0.0,2.0,82,0.00,,,0.00,meteohub,2013-07-05 12:53:00,
2013-07-05 08:58:00,82.6,54.1,30.14,WNW,286,0.0,1.0,81,0.00,,,0.00,meteohub,2013-07-05 12:58:00,
2013-07-05 09:04:00,82.9,54.1,30.14,WNW,286,0.0,2.0,80,0.00,,,0.00,meteohub,2013-07-05 13:04:00,
2013-07-05 09:09:00,83.3,54.1,30.14,WNW,286,0.0,2.0,80,0.00,,,0.00,meteohub,2013-07-05 13:09:00,
2013-07-05 09:14:00,83.7,54.3,30.14,SSE,157,1.0,4.0,77,0.00,,,0.00,meteohub,2013-07-05 13:14:00,
2013-07-05 09:19:00,83.8,54.3,30.14,WSW,256,0.0,5.0,78,0.00,,,0.00,meteohub,2013-07-05 13:19:00,
2013-07-05 09:25:00,84.2,54.5,30.14,SE,143,5.0,5.0,77,0.00,,,0.00,meteohub,2013-07-05 13:25:00,
2013-07-05 09:30:00,84.4,54.5,30.14,SSE,149,1.0,8.0,77,0.00,,,0.00,meteohub,2013-07-05 13:30:00,
2013-07-05 09:35:00,84.4,54.5,30.14,North,350,0.0,8.0,75,0.00,,,0.00,meteohub,2013-07-05 13:35:00,
2013-07-05 09:41:00,84.6,54.7,30.14,NW,325,1.0,8.0,75,0.00,,,0.00,meteohub,2013-07-05 13:41:00,
2013-07-05 09:47:00,84.7,54.7,30.14,NNW,336,1.0,4.0,75,0.00,,,0.00,meteohub,2013-07-05 13:47:00,
2013-07-05 09:52:00,84.9,54.7,30.13,NNW,336,0.0,4.0,77,0.00,,,0.00,meteohub,2013-07-05 13:52:00,
2013-07-05 09:57:00,85.3,54.7,30.13,NNW,327,0.0,4.0,75,0.00,,,0.00,meteohub,2013-07-05 13:57:00,
2013-07-05 10:02:00,85.5,54.7,30.13,NNW,327,0.0,2.0,75,0.00,,,0.00,meteohub,2013-07-05 14:02:00,
2013-07-05 10:07:00,85.8,55.0,30.13,NNW,342,0.0,2.0,74,0.00,,,0.00,meteohub,2013-07-05 14:07:00,
2013-07-05 10:12:00,86.4,55.0,30.14,NNW,336,0.0,2.0,73,0.00,,,0.00,meteohub,2013-07-05 14:12:00,
2013-07-05 10:17:00,86.7,55.0,30.14,NNW,337,1.0,4.0,73,0.00,,,0.00,meteohub,2013-07-05 14:17:00,
2013-07-05 10:22:00,87.1,55.0,30.13,West,261,0.0,4.0,72,0.00,,,0.00,meteohub,2013-07-05 14:22:00,
2013-07-05 10:27:00,87.3,55.2,30.14,ESE,106,0.0,4.0,72,0.00,,,0.00,meteohub,2013-07-05 14:27:00,
2013-07-05 10:32:00,87.6,55.0,30.13,East,96,1.0,3.0,73,0.00,,,0.00,meteohub,2013-07-05 14:32:00,
2013-07-05 10:37:00,88.0,55.0,30.13,East,86,0.0,2.0,71,0.00,,,0.00,meteohub,2013-07-05 14:37:00,
2013-07-05 10:42:00,88.2,54.7,30.13,NE,37,0.0,4.0,70,0.00,,,0.00,meteohub,2013-07-05 14:42:00,
2013-07-05 10:47:00,88.3,54.7,30.13,WSW,255,1.0,4.0,72,0.00,,,0.00,meteohub,2013-07-05 14:47:00,
2013-07-05 10:52:00,88.3,54.5,30.13,WNW,292,0.0,4.0,70,0.00,,,0.00,meteohub,2013-07-05 14:52:00,
2013-07-05 10:57:00,88.5,54.5,30.13,NW,319,0.0,2.0,70,0.00,,,0.00,meteohub,2013-07-05 14:57:00,
2013-07-05 11:02:00,88.7,54.5,30.12,WNW,303,0.0,6.0,68,0.00,,,0.00,meteohub,2013-07-05 15:02:00,
2013-07-05 11:07:00,88.7,54.5,30.13,ENE,67,1.0,6.0,69,0.00,,,0.00,meteohub,2013-07-05 15:07:00,
2013-07-05 11:12:00,89.1,54.5,30.12,East,82,0.0,6.0,69,0.00,,,0.00,meteohub,2013-07-05 15:12:00,
2013-07-05 11:18:00,89.2,54.3,30.12,WNW,290,1.0,5.0,67,0.00,,,0.00,meteohub,2013-07-05 15:18:00,
2013-07-05 11:23:00,89.2,54.3,30.12,NW,323,0.0,5.0,67,0.00,,,0.00,meteohub,2013-07-05 15:23:00,
2013-07-05 11:28:00,88.9,54.3,30.12,NW,306,0.0,5.0,69,0.00,,,0.00,meteohub,2013-07-05 15:28:00,
2013-07-05 11:33:00,88.7,54.3,30.12,WSW,252,0.0,5.0,70,0.00,,,0.00,meteohub,2013-07-05 15:33:00,
2013-07-05 11:38:00,88.9,54.3,30.12,WSW,252,0.0,5.0,69,0.00,,,0.00,meteohub,2013-07-05 15:38:00,
2013-07-05 11:43:00,89.1,54.3,30.12,SW,215,0.0,4.0,70,0.00,,,0.00,meteohub,2013-07-05 15:43:00,
2013-07-05 11:48:00,89.4,54.9,30.12,North,9,0.0,6.0,69,0.00,,,0.00,meteohub,2013-07-05 15:48:00,
2013-07-05 11:49:00,89.8,54.9,30.12,North,9,2.0,6.0,71,0.00,,,0.00,meteohub,2013-07-05 15:49:00,
2013-07-05 11:54:00,90.1,55.0,30.12,East,89,0.0,6.0,68,0.00,,,0.00,meteohub,2013-07-05 15:54:00,
2013-07-05 11:59:00,90.3,54.3,30.12,NNW,336,0.0,6.0,66,0.00,,,0.00,meteohub,2013-07-05 15:59:00,
2013-07-05 12:04:00,90.3,54.1,30.12,NNW,338,0.0,2.0,66,0.00,,,0.00,meteohub,2013-07-05 16:04:00,
2013-07-05 12:10:00,90.5,54.1,30.11,NNW,339,1.0,5.0,64,0.00,,,0.00,meteohub,2013-07-05 16:10:00,
2013-07-05 12:14:00,91.0,54.9,30.12,NNW,346,0.0,5.0,66,0.00,,,0.00,meteohub,2013-07-05 16:14:00,
2013-07-05 12:19:00,91.4,54.9,30.12,NNW,335,3.0,3.0,64,0.00,,,0.00,meteohub,2013-07-05 16:19:00,
2013-07-05 12:25:00,91.4,54.9,30.11,NNW,335,0.0,2.0,63,0.00,,,0.00,meteohub,2013-07-05 16:25:00,
2013-07-05 12:30:00,91.6,54.9,30.11,WNW,297,3.0,6.0,62,0.00,,,0.00,meteohub,2013-07-05 16:30:00,
2013-07-05 12:35:00,91.0,54.9,30.11,ESE,117,0.0,6.0,62,0.00,,,0.00,meteohub,2013-07-05 16:35:00,
2013-07-05 12:40:00,90.9,54.9,30.11,West,267,0.0,6.0,63,0.00,,,0.00,meteohub,2013-07-05 16:40:00,
2013-07-05 12:45:00,91.2,54.9,30.11,ESE,102,0.0,5.0,65,0.00,,,0.00,meteohub,2013-07-05 16:45:00,
2013-07-05 12:50:00,91.4,54.9,30.11,WNW,303,0.0,5.0,64,0.00,,,0.00,meteohub,2013-07-05 16:50:00,
2013-07-05 12:55:00,91.4,54.9,30.11,WNW,288,0.0,4.0,62,0.00,,,0.00,meteohub,2013-07-05 16:55:00,
2013-07-05 13:00:00,91.2,54.9,30.10,North,5,1.0,4.0,64,0.00,,,0.00,meteohub,2013-07-05 17:00:00,
2013-07-05 13:05:00,91.8,54.9,30.10,West,261,0.0,2.0,63,0.00,,,0.00,meteohub,2013-07-05 17:05:00,
2013-07-05 13:10:00,91.8,54.9,30.10,SE,126,0.0,5.0,62,0.00,,,0.00,meteohub,2013-07-05 17:10:00,
2013-07-05 13:15:00,92.1,55.0,30.10,NNW,329,0.0,5.0,61,0.00,,,0.00,meteohub,2013-07-05 17:15:00,
2013-07-05 13:20:00,92.1,55.0,30.10,SE,126,2.0,5.0,62,0.00,,,0.00,meteohub,2013-07-05 17:20:00,
2013-07-05 13:25:00,92.3,55.0,30.10,NW,319,0.0,4.0,63,0.00,,,0.00,meteohub,2013-07-05 17:25:00,
2013-07-05 13:30:00,92.5,55.0,30.10,NE,37,1.0,4.0,62,0.00,,,0.00,meteohub,2013-07-05 17:30:00,
2013-07-05 13:35:00,92.7,55.0,30.09,East,92,0.0,4.0,62,0.00,,,0.00,meteohub,2013-07-05 17:35:00,
2013-07-05 13:37:00,92.5,55.0,30.10,North,355,0.0,4.0,62,0.00,,,0.00,meteohub,2013-07-05 17:37:00,
2013-07-05 13:42:00,92.5,55.0,30.09,NNW,328,8.0,8.0,60,0.00,,,0.00,meteohub,2013-07-05 17:42:00,
2013-07-05 13:47:00,92.7,55.0,30.09,NW,307,0.0,9.0,62,0.00,,,0.00,meteohub,2013-07-05 17:47:00,
2013-07-05 13:52:00,92.8,55.0,30.09,WNW,297,0.0,9.0,60,0.00,,,0.00,meteohub,2013-07-05 17:52:00,
2013-07-05 13:57:00,92.3,55.0,30.09,SSE,150,0.0,9.0,61,0.00,,,0.00,meteohub,2013-07-05 17:57:00,
2013-07-05 14:02:00,91.9,55.0,30.09,SSE,167,0.0,5.0,60,0.00,,,0.00,meteohub,2013-07-05 18:02:00,
2013-07-05 14:07:00,91.9,55.2,30.09,NW,319,4.0,5.0,62,0.00,,,0.00,meteohub,2013-07-05 18:07:00,
2013-07-05 14:12:00,92.3,55.2,30.09,NNW,327,0.0,5.0,59,0.00,,,0.00,meteohub,2013-07-05 18:12:00,
2013-07-05 14:17:00,92.5,55.2,30.09,SSW,206,1.0,5.0,61,0.00,,,0.00,meteohub,2013-07-05 18:17:00,
2013-07-05 14:22:00,92.5,55.2,30.09,WNW,294,1.0,6.0,60,0.00,,,0.00,meteohub,2013-07-05 18:22:00,
2013-07-05 14:27:00,92.3,55.2,30.09,NNW,333,1.0,6.0,60,0.00,,,0.00,meteohub,2013-07-05 18:27:00,
2013-07-05 14:32:00,92.5,55.2,30.09,NNE,17,0.0,3.0,62,0.00,,,0.00,meteohub,2013-07-05 18:32:00,
2013-07-05 14:37:00,92.8,55.2,30.09,SE,134,0.0,5.0,62,0.00,,,0.00,meteohub,2013-07-05 18:37:00,
2013-07-05 14:42:00,93.0,55.2,30.09,NW,325,4.0,5.0,60,0.00,,,0.00,meteohub,2013-07-05 18:42:00,
2013-07-05 14:47:00,93.0,55.9,30.08,NW,326,0.0,4.0,64,0.00,,,0.00,meteohub,2013-07-05 18:47:00,
2013-07-05 14:52:00,93.4,55.9,30.08,West,259,0.0,4.0,60,0.00,,,0.00,meteohub,2013-07-05 18:52:00,
2013-07-05 14:57:00,93.4,55.4,30.08,NNW,334,1.0,4.0,58,0.00,,,0.00,meteohub,2013-07-05 18:57:00,
2013-07-05 14:59:00,93.4,55.4,30.07,ESE,123,0.0,4.0,58,0.00,,,0.00,meteohub,2013-07-05 18:59:00,
2013-07-05 15:04:00,92.8,56.1,30.07,East,96,0.0,4.0,58,0.00,,,0.00,meteohub,2013-07-05 19:04:00,
2013-07-05 15:09:00,92.5,56.1,30.07,South,173,3.0,3.0,62,0.00,,,0.00,meteohub,2013-07-05 19:09:00,
2013-07-05 15:10:00,92.5,56.1,30.07,SSE,166,0.0,4.0,61,0.00,,,0.00,meteohub,2013-07-05 19:10:00,
2013-07-05 15:15:00,92.5,56.1,30.07,NNW,330,1.0,4.0,61,0.00,,,0.00,meteohub,2013-07-05 19:15:00,
2013-07-05 15:20:00,92.7,56.1,30.07,NW,325,1.0,7.0,58,0.00,,,0.00,meteohub,2013-07-05 19:20:00,
2013-07-05 15:25:00,93.0,56.1,30.06,NW,322,2.0,7.0,58,0.00,,,0.00,meteohub,2013-07-05 19:25:00,
2013-07-05 15:30:00,93.0,56.3,30.06,NW,316,0.0,7.0,58,0.00,,,0.00,meteohub,2013-07-05 19:30:00,
2013-07-05 15:35:00,93.4,56.3,30.06,NNW,329,2.0,9.0,59,0.00,,,0.00,meteohub,2013-07-05 19:35:00,
2013-07-05 15:40:00,93.4,56.3,30.06,NW,317,0.0,9.0,58,0.00,,,0.00,meteohub,2013-07-05 19:40:00,
2013-07-05 15:45:00,93.2,56.3,30.06,North,355,0.0,5.0,59,0.00,,,0.00,meteohub,2013-07-05 19:45:00,
2013-07-05 15:50:00,93.4,56.3,30.06,NW,320,1.0,7.0,60,0.00,,,0.00,meteohub,2013-07-05 19:50:00,
2013-07-05 15:55:00,93.6,56.3,30.06,West,281,0.0,7.0,59,0.00,,,0.00,meteohub,2013-07-05 19:55:00,
2013-07-05 16:00:00,93.6,56.5,30.05,ENE,61,0.0,7.0,56,0.00,,,0.00,meteohub,2013-07-05 20:00:00,
2013-07-05 16:05:00,92.8,56.5,30.05,NNW,336,5.0,5.0,59,0.00,,,0.00,meteohub,2013-07-05 20:05:00,
2013-07-05 16:10:00,92.1,56.5,30.05,NE,45,0.0,5.0,59,0.00,,,0.00,meteohub,2013-07-05 20:10:00,
2013-07-05 16:15:00,92.3,56.5,30.05,NW,321,4.0,6.0,62,0.00,,,0.00,meteohub,2013-07-05 20:15:00,
2013-07-05 16:20:00,92.3,56.5,30.05,WNW,283,1.0,9.0,60,0.00,,,0.00,meteohub,2013-07-05 20:20:00,
2013-07-05 16:25:00,92.5,56.5,30.05,NW,321,0.0,9.0,60,0.00,,,0.00,meteohub,2013-07-05 20:25:00,
2013-07-05 16:31:00,92.7,56.5,30.05,NW,311,2.0,9.0,61,0.00,,,0.00,meteohub,2013-07-05 20:31:00,
2013-07-05 16:36:00,92.5,56.5,30.05,NNW,348,0.0,6.0,59,0.00,,,0.00,meteohub,2013-07-05 20:36:00,
2013-07-05 16:41:00,92.5,56.5,30.05,NW,315,2.0,6.0,60,0.00,,,0.00,meteohub,2013-07-05 20:41:00,
2013-07-05 16:46:00,92.7,56.5,30.05,WNW,298,0.0,6.0,57,0.00,,,0.00,meteohub,2013-07-05 20:46:00,
2013-07-05 16:51:00,92.7,56.5,30.05,NW,318,3.0,8.0,59,0.00,,,0.00,meteohub,2013-07-05 20:51:00,
2013-07-05 16:56:00,92.5,56.5,30.05,WNW,296,5.0,8.0,58,0.00,,,0.00,meteohub,2013-07-05 20:56:00,
2013-07-05 17:01:00,92.5,56.5,30.05,SE,133,0.0,8.0,59,0.00,,,0.00,meteohub,2013-07-05 21:01:00,
2013-07-05 17:06:00,92.1,56.5,30.05,NNW,328,2.0,9.0,59,0.00,,,0.00,meteohub,2013-07-05 21:06:00,
2013-07-05 17:07:00,92.1,56.5,30.05,North,350,2.0,9.0,59,0.00,,,0.00,meteohub,2013-07-05 21:07:00,
2013-07-05 17:12:00,92.1,56.5,30.05,NW,321,1.0,9.0,58,0.00,,,0.00,meteohub,2013-07-05 21:12:00,
2013-07-05 17:17:00,91.9,56.5,30.05,ENE,76,0.0,9.0,59,0.00,,,0.00,meteohub,2013-07-05 21:17:00,
2013-07-05 17:22:00,91.8,56.5,30.04,East,98,0.0,5.0,59,0.00,,,0.00,meteohub,2013-07-05 21:22:00,
2013-07-05 17:27:00,91.6,56.5,30.04,NW,305,6.0,6.0,59,0.00,,,0.00,meteohub,2013-07-05 21:27:00,
2013-07-05 17:32:00,91.0,56.5,30.04,WNW,296,0.0,7.0,60,0.00,,,0.00,meteohub,2013-07-05 21:32:00,
2013-07-05 17:37:00,90.9,55.9,30.04,NW,313,0.0,7.0,59,0.00,,,0.00,meteohub,2013-07-05 21:37:00,
2013-07-05 17:42:00,90.7,55.9,30.04,NW,311,2.0,7.0,61,0.00,,,0.00,meteohub,2013-07-05 21:42:00,
2013-07-05 17:47:00,90.3,56.5,30.04,NW,321,5.0,6.0,61,0.00,,,0.00,meteohub,2013-07-05 21:47:00,
2013-07-05 17:52:00,90.1,56.5,30.04,NNW,337,0.0,6.0,61,0.00,,,0.00,meteohub,2013-07-05 21:52:00,
2013-07-05 17:57:00,90.0,56.5,30.04,North,9,1.0,6.0,61,0.00,,,0.00,meteohub,2013-07-05 21:57:00,
2013-07-05 18:02:00,90.0,56.5,30.04,WNW,291,0.0,6.0,61,0.00,,,0.00,meteohub,2013-07-05 22:02:00,
2013-07-05 18:07:00,89.8,56.5,30.04,West,279,0.0,7.0,62,0.00,,,0.00,meteohub,2013-07-05 22:07:00,
2013-07-05 18:12:00,89.8,56.5,30.03,WNW,302,0.0,7.0,62,0.00,,,0.00,meteohub,2013-07-05 22:12:00,
2013-07-05 18:17:00,89.4,56.5,30.03,North,11,1.0,7.0,62,0.00,,,0.00,meteohub,2013-07-05 22:17:00,
2013-07-05 18:22:00,89.2,56.5,30.03,SE,132,0.0,4.0,63,0.00,,,0.00,meteohub,2013-07-05 22:22:00,
2013-07-05 18:27:00,89.1,56.5,30.03,NNW,341,0.0,5.0,63,0.00,,,0.00,meteohub,2013-07-05 22:27:00,
2013-07-05 18:32:00,88.9,56.5,30.03,NW,306,0.0,7.0,63,0.00,,,0.00,meteohub,2013-07-05 22:32:00,
2013-07-05 18:37:00,88.9,56.5,30.03,NNW,327,0.0,7.0,64,0.00,,,0.00,meteohub,2013-07-05 22:37:00,
2013-07-05 18:42:00,88.5,56.5,30.03,NW,315,4.0,7.0,63,0.00,,,0.00,meteohub,2013-07-05 22:42:00,
2013-07-05 18:47:00,88.3,56.7,30.03,NW,314,0.0,6.0,64,0.00,,,0.00,meteohub,2013-07-05 22:47:00,
2013-07-05 18:52:00,88.3,56.7,30.03,NW,314,0.0,6.0,65,0.00,,,0.00,meteohub,2013-07-05 22:52:00,
2013-07-05 18:57:00,88.2,56.5,30.03,WNW,302,0.0,4.0,65,0.00,,,0.00,meteohub,2013-07-05 22:57:00,
2013-07-05 19:02:00,87.8,56.5,30.03,WNW,302,0.0,2.0,65,0.00,,,0.00,meteohub,2013-07-05 23:02:00,
2013-07-05 19:07:00,87.6,56.5,30.03,WNW,302,0.0,2.0,66,0.00,,,0.00,meteohub,2013-07-05 23:07:00,
2013-07-05 19:12:00,87.4,56.5,30.04,WNW,302,0.0,1.0,66,0.00,,,0.00,meteohub,2013-07-05 23:12:00,
2013-07-05 19:17:00,87.3,56.5,30.03,WNW,302,0.0,1.0,67,0.00,,,0.00,meteohub,2013-07-05 23:17:00,
2013-07-05 19:23:00,87.1,56.5,30.03,WNW,302,0.0,4.0,67,0.00,,,0.00,meteohub,2013-07-05 23:23:00,
2013-07-05 19:28:00,87.1,56.5,30.03,WNW,302,0.0,4.0,68,0.00,,,0.00,meteohub,2013-07-05 23:28:00,
2013-07-05 19:33:00,86.7,56.5,30.03,WNW,302,0.0,4.0,68,0.00,,,0.00,meteohub,2013-07-05 23:33:00,
2013-07-05 19:38:00,86.5,56.3,30.02,WNW,302,0.0,1.0,69,0.00,,,0.00,meteohub,2013-07-05 23:38:00,
2013-07-05 19:43:00,86.2,56.3,30.02,WNW,302,0.0,1.0,70,0.00,,,0.00,meteohub,2013-07-05 23:43:00,
2013-07-05 19:48:00,86.2,56.3,30.02,WNW,302,0.0,1.0,71,0.00,,,0.00,meteohub,2013-07-05 23:48:00,
2013-07-05 19:53:00,85.6,56.1,30.03,WNW,302,0.0,1.0,72,0.00,,,0.00,meteohub,2013-07-05 23:53:00,
2013-07-05 19:58:00,85.3,56.1,30.03,WNW,302,0.0,1.0,73,0.00,,,0.00,meteohub,2013-07-05 23:58:00,
2013-07-05 20:03:00,84.9,56.1,30.03,WNW,302,0.0,1.0,74,0.00,,,0.00,meteohub,2013-07-06 00:03:00,
2013-07-05 20:08:00,84.7,55.9,30.03,WNW,302,0.0,1.0,75,0.00,,,0.00,meteohub,2013-07-06 00:08:00,
2013-07-05 20:13:00,84.6,55.9,30.03,WNW,302,0.0,0.0,75,0.00,,,0.00,meteohub,2013-07-06 00:13:00,
2013-07-05 20:18:00,84.4,55.9,30.04,WNW,302,0.0,0.0,76,0.00,,,0.00,meteohub,2013-07-06 00:18:00,
2013-07-05 20:23:00,84.2,55.9,30.04,WNW,302,0.0,2.0,76,0.00,,,0.00,meteohub,2013-07-06 00:23:00,
2013-07-05 20:24:00,84.2,55.9,30.04,WNW,302,0.0,2.0,76,0.00,,,0.00,meteohub,2013-07-06 00:24:00,
2013-07-05 20:29:00,84.0,55.9,30.03,WNW,302,0.0,2.0,77,0.00,,,0.00,meteohub,2013-07-06 00:29:00,
2013-07-05 20:34:00,84.0,55.9,30.03,WNW,302,0.0,2.0,77,0.00,,,0.00,meteohub,2013-07-06 00:34:00,
2013-07-05 20:39:00,83.8,55.9,30.03,WNW,302,0.0,1.0,77,0.00,,,0.00,meteohub,2013-07-06 00:39:00,
2013-07-05 20:44:00,83.7,55.8,30.03,WNW,302,0.0,0.0,77,0.00,,,0.00,meteohub,2013-07-06 00:44:00,
2013-07-05 20:49:00,83.5,55.8,30.03,WNW,302,0.0,0.0,77,0.00,,,0.00,meteohub,2013-07-06 00:49:00,
2013-07-05 20:54:00,83.3,55.8,30.03,WNW,302,0.0,1.0,77,0.00,,,0.00,meteohub,2013-07-06 00:54:00,
2013-07-05 20:59:00,83.1,55.8,30.03,WNW,302,0.0,1.0,78,0.00,,,0.00,meteohub,2013-07-06 00:59:00,
2013-07-05 21:04:00,83.1,55.8,30.04,WNW,302,0.0,1.0,78,0.00,,,0.00,meteohub,2013-07-06 01:04:00,
2013-07-05 21:09:00,82.9,55.8,30.04,WNW,302,0.0,1.0,78,0.00,,,0.00,meteohub,2013-07-06 01:09:00,
2013-07-05 21:14:00,82.8,55.8,30.04,WNW,302,0.0,1.0,79,0.00,,,0.00,meteohub,2013-07-06 01:14:00,
2013-07-05 21:19:00,82.8,55.6,30.05,WNW,302,0.0,1.0,78,0.00,,,0.00,meteohub,2013-07-06 01:19:00,
2013-07-05 21:24:00,82.6,55.6,30.05,WNW,302,0.0,1.0,78,0.00,,,0.00,meteohub,2013-07-06 01:24:00,
2013-07-05 21:29:00,82.4,55.6,30.05,WNW,302,0.0,1.0,79,0.00,,,0.00,meteohub,2013-07-06 01:29:00,
2013-07-05 21:34:00,82.2,55.6,30.06,WNW,302,0.0,1.0,79,0.00,,,0.00,meteohub,2013-07-06 01:34:00,
2013-07-05 21:39:00,82.2,55.6,30.05,WNW,302,1.0,1.0,79,0.00,,,0.00,meteohub,2013-07-06 01:39:00,
2013-07-05 21:44:00,82.0,55.6,30.06,WNW,302,0.0,1.0,79,0.00,,,0.00,meteohub,2013-07-06 01:44:00,
2013-07-05 21:49:00,82.0,55.6,30.05,WNW,302,0.0,1.0,79,0.00,,,0.00,meteohub,2013-07-06 01:49:00,
2013-07-05 21:54:00,81.9,55.6,30.05,WNW,302,0.0,2.0,80,0.00,,,0.00,meteohub,2013-07-06 01:54:00,
2013-07-05 21:59:00,81.9,55.4,30.05,WNW,302,0.0,2.0,80,0.00,,,0.00,meteohub,2013-07-06 01:59:00,
2013-07-05 22:04:00,81.7,55.4,30.05,WNW,302,0.0,2.0,80,0.00,,,0.00,meteohub,2013-07-06 02:04:00,
2013-07-05 22:09:00,81.7,55.4,30.05,WNW,298,1.0,1.0,80,0.00,,,0.00,meteohub,2013-07-06 02:09:00,
2013-07-05 22:10:00,81.5,55.4,30.05,WNW,298,1.0,1.0,80,0.00,,,0.00,meteohub,2013-07-06 02:10:00,
2013-07-05 22:15:00,81.3,55.6,30.05,NW,306,0.0,2.0,81,0.00,,,0.00,meteohub,2013-07-06 02:15:00,
2013-07-05 22:20:00,81.3,55.6,30.04,NW,306,0.0,2.0,81,0.00,,,0.00,meteohub,2013-07-06 02:20:00,
2013-07-05 22:25:00,81.3,55.8,30.04,NW,306,0.0,2.0,81,0.00,,,0.00,meteohub,2013-07-06 02:25:00,
2013-07-05 22:30:00,81.1,55.9,30.05,NW,306,0.0,2.0,82,0.00,,,0.00,meteohub,2013-07-06 02:30:00,
2013-07-05 22:35:00,81.1,55.9,30.05,NW,315,0.0,2.0,82,0.00,,,0.00,meteohub,2013-07-06 02:35:00,
2013-07-05 22:40:00,81.0,55.9,30.05,NW,315,0.0,2.0,83,0.00,,,0.00,meteohub,2013-07-06 02:40:00,
2013-07-05 22:45:00,80.8,55.9,30.05,WNW,294,0.0,5.0,83,0.00,,,0.00,meteohub,2013-07-06 02:45:00,
2013-07-05 22:50:00,80.8,55.9,30.04,WNW,294,0.0,5.0,83,0.00,,,0.00,meteohub,2013-07-06 02:50:00,
2013-07-05 22:55:00,80.6,55.9,30.04,WNW,294,0.0,5.0,83,0.00,,,0.00,meteohub,2013-07-06 02:55:00,
2013-07-05 23:00:00,80.4,55.9,30.04,WNW,294,0.0,1.0,84,0.00,,,0.00,meteohub,2013-07-06 03:00:00,
2013-07-05 23:05:00,80.4,55.9,30.04,WNW,295,0.0,1.0,84,0.00,,,0.00,meteohub,2013-07-06 03:05:00,
2013-07-05 23:10:00,80.2,55.2,30.04,WNW,301,0.0,2.0,84,0.00,,,0.00,meteohub,2013-07-06 03:10:00,
2013-07-05 23:15:00,80.2,55.2,30.05,WNW,300,0.0,2.0,85,0.00,,,0.00,meteohub,2013-07-06 03:15:00,
2013-07-05 23:20:00,80.2,55.2,30.04,NW,320,1.0,2.0,85,0.00,,,0.00,meteohub,2013-07-06 03:20:00,
2013-07-05 23:25:00,80.2,55.2,30.04,NW,320,0.0,4.0,85,0.00,,,0.00,meteohub,2013-07-06 03:25:00,
2013-07-05 23:30:00,80.1,55.2,30.04,South,182,0.0,4.0,85,0.00,,,0.00,meteohub,2013-07-06 03:30:00,
2013-07-05 23:36:00,80.1,55.2,30.04,South,182,0.0,4.0,85,0.00,,,0.00,meteohub,2013-07-06 03:36:00,
2013-07-05 23:41:00,80.1,55.2,30.04,South,182,0.0,4.0,86,0.00,,,0.00,meteohub,2013-07-06 03:41:00,
2013-07-05 23:46:00,80.1,55.2,30.05,NW,310,0.0,1.0,86,0.00,,,0.00,meteohub,2013-07-06 03:46:00,
2013-07-05 23:51:00,80.1,55.2,30.05,WNW,298,4.0,4.0,86,0.00,,,0.00,meteohub,2013-07-06 03:51:00,
2013-07-05 23:56:00,80.1,55.2,30.05,WNW,298,0.0,4.0,85,0.00,,,0.00,meteohub,2013-07-06 03:56:00,